GW0206 Weather Reports


Display with metric or nautical units.
time (UTC)temp
F
wind
direction
speed
MPH
gust
MPH
rain 1hr
in
rain 24hr
in
rain mn
in
humidity
%
barometer
mb
20260508004008 49 137 0.0 1.0 0.00 0.00 0.00 60 1012.9
20260508003511 49 137 0.0 2.0 0.00 0.00 0.00 59 1012.9
20260508003022 50 137 0.0 3.0 0.00 0.00 0.00 59 1012.9
20260508002504 50 137 0.0 3.0 0.00 0.00 0.00 57 1012.9
20260508002007 50 163 0.0 4.0 0.00 0.00 0.00 57 1012.8
20260508001521 51 163 0.0 4.0 0.00 0.00 0.00 57 1012.8
20260508001009 51 148 0.0 3.0 0.00 0.00 0.00 55 1012.7
20260508000504 51 148 1.0 5.0 0.00 0.00 0.00 57 1012.7
20260508000023 52 159 0.0 5.0 0.00 0.00 0.00 54 1012.6
20260507235507 52 131 0.0 4.0 0.00 0.00 0.00 57 1012.5
20260507235008 52 151 1.0 9.0 0.00 0.00 0.00 54 1012.4
20260507234512 53 141 1.0 9.0 0.00 0.00 0.00 54 1012.4
20260507234005 54 138 0.0 6.0 0.00 0.00 0.00 53 1012.3
20260507233504 54 140 0.0 9.0 0.00 0.00 0.00 52 1012.2
20260507233027 55 134 1.0 9.0 0.00 0.00 0.00 49 1012.2
20260507232510 55 157 2.0 9.0 0.00 0.00 0.00 51 1012.2
20260507232012 55 117 2.0 9.0 0.00 0.00 0.00 50 1012.2
20260507231521 55 84 1.0 9.0 0.00 0.00 0.00 50 1012.2
20260507231012 55 122 4.0 9.0 0.00 0.00 0.00 48 1012.3
20260507230510 56 126 1.0 8.0 0.00 0.00 0.00 49 1012.3
20260507230024 56 101 3.0 15.0 0.00 0.00 0.00 48 1012.3
20260507225507 56 124 3.0 16.0 0.00 0.00 0.00 46 1012.2
20260507225007 56 95 9.0 16.0 0.00 0.00 0.00 46 1012.2
20260507224531 56 95 9.0 15.0 0.00 0.00 0.00 43 1012.2
20260507224007 57 138 7.0 17.0 0.00 0.00 0.00 45 1012.3
20260507223504 57 147 6.0 17.0 0.00 0.00 0.00 45 1012.4
20260507223023 57 151 6.0 25.0 0.00 0.00 0.00 47 1012.3
20260507222505 56 100 7.0 25.0 0.00 0.00 0.00 46 1012.4
20260507222006 57 92 5.0 17.0 0.00 0.00 0.00 47 1012.3
20260507221520 57 123 6.0 20.0 0.00 0.00 0.00 47 1012.3
20260507221010 57 131 10.0 20.0 0.00 0.00 0.00 45 1012.3
20260507220510 57 110 9.0 20.0 0.00 0.00 0.00 48 1012.3
20260507220022 57 169 8.0 18.0 0.00 0.00 0.00 48 1012.2
20260507215506 56 158 6.0 14.0 0.00 0.00 0.00 49 1012.3
20260507215009 57 154 7.0 18.0 0.00 0.00 0.00 49 1012.2
20260507214509 57 107 8.0 18.0 0.00 0.00 0.00 48 1012.1
20260507214002 57 98 9.0 16.0 0.00 0.00 0.00 48 1012.0
20260507213503 57 131 4.0 13.0 0.00 0.00 0.00 52 1012.1
20260507213010 56 136 3.0 15.0 0.00 0.00 0.00 50 1012.0
20260507212501 56 74 9.0 16.0 0.00 0.00 0.00 47 1011.9
20260507212003 57 136 7.0 16.0 0.00 0.00 0.00 47 1011.9
20260507211504 58 134 7.0 15.0 0.00 0.00 0.00 46 1011.8
20260507211004 57 113 6.0 14.0 0.00 0.00 0.00 50 1011.8
20260507210502 57 119 6.0 17.0 0.00 0.00 0.00 53 1011.7
20260507210009 57 97 5.0 17.0 0.00 0.00 0.00 54 1011.6
20260507205503 56 115 6.0 17.0 0.00 0.00 0.00 53 1011.6
20260507205004 56 146 7.0 19.0 0.00 0.00 0.00 53 1011.7
20260507204504 56 161 9.0 19.0 0.00 0.00 0.00 51 1011.6
20260507204003 57 99 8.0 18.0 0.00 0.00 0.00 50 1011.6
20260507203505 59 169 6.0 17.0 0.00 0.00 0.00 49 1011.4
20260507203003 59 146 8.0 19.0 0.00 0.00 0.00 49 1011.3
20260507202503 59 130 8.0 19.0 0.00 0.00 0.00 48 1011.3
20260507202005 59 94 9.0 18.0 0.00 0.00 0.00 52 1011.5
20260507201512 58 129 5.0 16.0 0.00 0.00 0.00 52 1011.5
20260507201003 58 105 6.0 16.0 0.00 0.00 0.00 49 1011.5
20260507200504 59 143 6.0 17.0 0.00 0.00 0.00 50 1011.6
20260507200006 58 107 8.0 17.0 0.00 0.00 0.00 49 1011.5
20260507195502 57 112 3.0 14.0 0.00 0.00 0.00 52 1011.5
20260507195003 58 144 3.0 14.0 0.00 0.00 0.00 52 1011.6
20260507194504 59 146 5.0 15.0 0.00 0.00 0.00 48 1011.7
20260507194002 59 73 7.0 15.0 0.00 0.00 0.00 51 1011.8
20260507193502 58 63 5.0 17.0 0.00 0.00 0.00 48 1011.8
20260507193004 58 118 5.0 17.0 0.00 0.00 0.00 52 1011.9
20260507192504 58 128 7.0 17.0 0.00 0.00 0.00 51 1011.9
20260507192004 58 102 4.0 17.0 0.00 0.00 0.00 52 1011.9
20260507191503 59 153 5.0 14.0 0.00 0.00 0.00 50 1012.0
20260507191004 58 118 5.0 16.0 0.00 0.00 0.00 52 1012.0
20260507190503 58 105 7.0 16.0 0.00 0.00 0.00 50 1011.9
20260507190016 57 125 8.0 15.0 0.00 0.00 0.00 52 1012.0
20260507185502 57 111 8.0 15.0 0.00 0.00 0.00 50 1012.0
20260507185008 58 90 7.0 22.0 0.00 0.00 0.00 48 1011.9
20260507184514 58 123 7.0 22.0 0.00 0.00 0.00 49 1012.0
20260507184003 58 90 8.0 18.0 0.00 0.00 0.00 48 1011.9
20260507183502 58 161 2.0 13.0 0.00 0.00 0.00 58 1011.9
20260507183004 59 145 5.0 15.0 0.00 0.00 0.00 51 1012.0
20260507182504 59 74 10.0 15.0 0.00 0.00 0.00 48 1012.0
20260507182004 58 90 8.0 13.0 0.00 0.00 0.00 53 1012.0
20260507181510 57 123 2.0 14.0 0.00 0.00 0.00 54 1012.0
20260507181006 57 129 3.0 16.0 0.00 0.00 0.00 52 1012.0
20260507180509 58 82 7.0 18.0 0.00 0.00 0.00 50 1012.0
20260507180008 57 101 5.0 18.0 0.00 0.00 0.00 55 1012.0
20260507175503 57 132 4.0 15.0 0.00 0.00 0.00 52 1012.1
20260507175007 57 76 10.0 15.0 0.00 0.00 0.00 49 1012.0
20260507174503 58 107 6.0 15.0 0.00 0.00 0.00 49 1012.0
20260507174003 58 138 6.0 16.0 0.00 0.00 0.00 52 1012.1
20260507173507 58 117 6.0 16.0 0.00 0.00 0.00 57 1012.2
20260507173031 58 109 6.0 13.0 0.00 0.00 0.00 53 1012.1
20260507172503 58 139 5.0 14.0 0.00 0.00 0.00 55 1012.1
20260507172004 58 132 9.0 15.0 0.00 0.00 0.00 50 1012.2
20260507171503 58 52 9.0 15.0 0.00 0.00 0.00 48 1012.2
20260507171002 58 148 3.0 18.0 0.00 0.00 0.00 54 1012.3
20260507170504 58 83 11.0 18.0 0.00 0.00 0.00 49 1012.2
20260507170015 58 38 8.0 13.0 0.00 0.00 0.00 51 1012.3
20260507165505 58 94 5.0 17.0 0.00 0.00 0.00 52 1012.3
20260507165003 58 157 2.0 17.0 0.00 0.00 0.00 58 1012.4
20260507164512 57 107 6.0 19.0 0.00 0.00 0.00 51 1012.4
20260507164007 57 71 11.0 19.0 0.00 0.00 0.00 48 1012.3
20260507163506 57 128 5.0 18.0 0.00 0.00 0.00 53 1012.4
20260507163009 56 90 4.0 16.0 0.00 0.00 0.00 52 1012.3
20260507162503 56 132 9.0 16.0 0.00 0.00 0.00 48 1012.4
20260507162009 56 105 9.0 16.0 0.00 0.00 0.00 54 1012.4
20260507161523 57 112 9.0 19.0 0.00 0.00 0.00 46 1012.4
20260507161000 57 84 8.0 19.0 0.00 0.00 0.00 49 1012.3
20260507160502 56 114 5.0 14.0 0.00 0.00 0.00 59 1012.3
20260507160008 56 22 4.0 14.0 0.00 0.00 0.00 54 1012.3
20260507155506 56 139 5.0 14.0 0.00 0.00 0.00 54 1012.4
20260507155003 55 107 4.0 20.0 0.00 0.00 0.00 51 1012.3
20260507154527 55 69 9.0 20.0 0.00 0.00 0.00 52 1012.4
20260507154009 55 58 5.0 13.0 0.00 0.00 0.00 54 1012.4
20260507153504 55 61 5.0 14.0 0.00 0.00 0.00 52 1012.4
20260507153030 55 123 7.0 15.0 0.00 0.00 0.00 51 1012.4
20260507152507 55 107 3.0 15.0 0.00 0.00 0.00 58 1012.5
20260507152009 54 63 7.0 14.0 0.00 0.00 0.00 53 1012.4
20260507151512 54 148 3.0 12.0 0.00 0.00 0.00 54 1012.4
20260507151006 55 96 6.0 12.0 0.00 0.00 0.00 54 1012.4
20260507150510 55 105 7.0 15.0 0.00 0.00 0.00 59 1012.6
20260507150008 54 71 8.0 15.0 0.00 0.00 0.00 53 1012.6
20260507145508 54 141 7.0 17.0 0.00 0.00 0.00 56 1012.5
20260507145007 54 97 7.0 17.0 0.00 0.00 0.00 56 1012.7
20260507144510 54 113 8.0 15.0 0.00 0.00 0.00 56 1012.8
20260507144003 54 98 7.0 15.0 0.00 0.00 0.00 58 1012.7
20260507143505 54 86 5.0 13.0 0.00 0.00 0.00 60 1012.7
20260507143022 54 133 3.0 13.0 0.00 0.00 0.00 66 1012.7
20260507142507 53 96 7.0 17.0 0.00 0.00 0.00 61 1012.7
20260507142006 53 71 8.0 17.0 0.00 0.00 0.00 61 1012.7
20260507141521 53 76 8.0 17.0 0.00 0.00 0.00 62 1012.8
20260507141008 53 50 6.0 12.0 0.00 0.00 0.00 65 1012.9
20260507140504 53 118 7.0 12.0 0.00 0.00 0.00 62 1012.9
20260507140016 53 40 3.0 12.0 0.00 0.00 0.00 67 1013.0
20260507135509 52 89 5.0 12.0 0.00 0.00 0.00 68 1013.1
20260507135011 52 113 3.0 9.0 0.00 0.00 0.00 68 1013.2
20260507134515 51 110 4.0 9.0 0.00 0.00 0.00 67 1013.2
20260507134006 51 117 5.0 9.0 0.00 0.00 0.00 68 1013.2
20260507133510 51 127 2.0 10.0 0.00 0.00 0.00 72 1013.3
20260507133012 51 63 6.0 10.0 0.00 0.00 0.00 74 1013.3
20260507132503 51 138 3.0 8.0 0.00 0.00 0.00 74 1013.3
20260507132007 50 91 1.0 10.0 0.00 0.00 0.00 75 1013.3
20260507131519 49 119 6.0 10.0 0.00 0.00 0.00 73 1013.3
20260507131003 49 122 2.0 10.0 0.00 0.00 0.00 77 1013.2
20260507130505 48 127 4.0 10.0 0.00 0.00 0.00 76 1013.3
20260507130035 48 103 4.0 10.0 0.00 0.00 0.00 77 1013.2
20260507125510 48 48 6.0 10.0 0.00 0.00 0.00 79 1013.2
20260507125008 47 52 5.0 10.0 0.00 0.00 0.00 80 1013.2
20260507124501 46 64 3.0 10.0 0.00 0.00 0.00 81 1013.3
20260507124001 45 45 4.0 8.0 0.00 0.00 0.00 83 1013.3
20260507123501 45 122 4.0 9.0 0.00 0.00 0.00 83 1013.2
20260507123002 44 101 3.0 9.0 0.00 0.00 0.00 84 1013.2
20260507122502 43 100 4.0 8.0 0.00 0.00 0.00 87 1013.3
20260507122006 42 82 3.0 9.0 0.00 0.00 0.00 88 1013.2
20260507121516 42 30 5.0 9.0 0.00 0.00 0.00 89 1013.1
20260507121002 41 63 3.0 8.0 0.00 0.00 0.00 90 1013.1
20260507120504 41 57 2.0 6.0 0.00 0.00 0.00 90 1013.2
20260507120020 41 66 2.0 5.0 0.00 0.00 0.00 92 1013.2
20260507115503 40 71 2.0 5.0 0.00 0.00 0.00 93 1013.3
20260507115001 40 66 2.0 4.0 0.00 0.00 0.00 94 1013.4
20260507114503 40 13 0.0 3.0 0.00 0.00 0.00 94 1013.3
20260507114005 39 13 1.0 3.0 0.00 0.00 0.00 94 1013.2
20260507113503 39 13 0.0 2.0 0.00 0.00 0.00 94 1013.3
20260507113006 39 13 0.0 2.0 0.00 0.00 0.00 94 1013.2
20260507112502 39 13 0.0 2.0 0.00 0.00 0.00 94 1013.2
20260507112002 39 13 0.0 1.0 0.00 0.00 0.00 94 1013.1
20260507111503 38 13 0.0 2.0 0.00 0.00 0.00 94 1013.2
20260507111003 38 13 0.0 3.0 0.00 0.00 0.00 94 1013.2
20260507110506 38 13 1.0 3.0 0.00 0.00 0.00 94 1013.1
20260507110016 38 343 0.0 2.0 0.00 0.00 0.00 94 1013.0
20260507105502 38 343 0.0 3.0 0.00 0.00 0.00 94 1012.9
20260507105002 38 343 0.0 3.0 0.00 0.00 0.00 94 1012.9
20260507104518 38 343 0.0 3.0 0.00 0.00 0.00 94 1012.8
20260507104009 38 343 0.0 3.0 0.00 0.00 0.00 94 1012.8
20260507103501 38 342 0.0 3.0 0.00 0.00 0.00 94 1012.8
20260507103005 38 342 0.0 3.0 0.00 0.00 0.00 93 1012.8
20260507102503 38 342 0.0 2.0 0.00 0.00 0.00 93 1012.8
20260507102003 38 355 0.0 2.0 0.00 0.00 0.00 93 1012.7
20260507101507 38 355 0.0 3.0 0.00 0.00 0.00 93 1012.7
20260507101002 38 355 1.0 3.0 0.00 0.00 0.00 93 1012.8
20260507100505 38 355 0.0 3.0 0.00 0.00 0.00 93 1012.7
20260507100006 38 360 0.0 0.0 0.00 0.01 0.00 93 1012.7
20260507095506 38 360 0.0 0.0 0.00 0.01 0.00 93 1012.6
20260507095006 38 360 0.0 0.0 0.00 0.02 0.00 93 1012.6
20260507094516 38 360 0.0 0.0 0.00 0.02 0.00 93 1012.6
20260507094002 38 360 0.0 0.0 0.00 0.03 0.00 92 1012.6
20260507093507 38 360 0.0 0.0 0.00 0.04 0.00 92 1012.7
20260507093025 38 12 0.0 2.0 0.00 0.04 0.00 92 1012.7
20260507092503 38 12 0.0 3.0 0.00 0.05 0.00 92 1012.7
20260507092003 39 12 0.0 3.0 0.00 0.06 0.00 92 1012.7
20260507091503 39 9 0.0 3.0 0.00 0.07 0.00 92 1012.8
20260507091004 39 9 1.0 2.0 0.00 0.08 0.00 92 1012.8
20260507090503 39 9 0.0 2.0 0.00 0.09 0.00 92 1012.7
20260507090010 39 9 1.0 3.0 0.00 0.10 0.00 91 1012.8
20260507085503 39 9 0.0 3.0 0.00 0.11 0.00 91 1012.8
20260507085006 39 21 1.0 3.0 0.00 0.11 0.00 91 1012.7
20260507084510 39 22 1.0 3.0 0.00 0.12 0.00 91 1012.7
20260507084006 39 28 2.0 3.0 0.00 0.12 0.00 91 1012.7
20260507083507 39 14 1.0 3.0 0.00 0.12 0.00 91 1012.8
20260507083008 39 12 1.0 3.0 0.00 0.12 0.00 90 1012.8
20260507082504 39 14 0.0 2.0 0.00 0.12 0.00 90 1012.8
20260507082009 40 331 0.0 2.0 0.00 0.13 0.00 90 1012.8
20260507081523 40 299 0.0 2.0 0.00 0.14 0.00 90 1012.8
20260507081003 40 298 0.0 2.0 0.00 0.15 0.00 89 1012.9
20260507080507 40 298 0.0 2.0 0.00 0.16 0.00 89 1012.9
20260507080027 40 291 0.0 1.0 0.00 0.18 0.00 88 1012.9
20260507075503 40 291 0.0 1.0 0.00 0.20 0.00 88 1012.9
20260507075002 40 255 0.0 2.0 0.00 0.21 0.00 88 1012.8
20260507074511 40 243 0.0 2.0 0.00 0.24 0.00 87 1012.8
20260507074007 40 241 0.0 2.0 0.00 0.25 0.00 87 1012.9
20260507073502 40 239 0.0 1.0 0.00 0.26 0.00 87 1012.9
20260507073018 40 239 0.0 1.0 0.00 0.28 0.00 86 1013.0
20260507072507 41 239 0.0 2.0 0.00 0.29 0.00 86 1012.9
20260507072008 41 239 0.0 2.0 0.00 0.30 0.00 85 1012.9
20260507071534 41 238 0.0 2.0 0.00 0.31 0.00 85 1012.9
20260507071006 41 238 0.0 2.0 0.00 0.32 0.00 85 1012.9
20260507070509 41 235 0.0 1.0 0.00 0.33 0.00 85 1012.9
20260507070027 41 234 0.0 1.0 0.00 0.34 0.00 85 1012.9
20260507065505 41 234 0.0 2.0 0.00 0.35 0.00 85 1013.0
20260507065009 41 234 0.0 2.0 0.00 0.36 0.00 85 1013.0
20260507064527 41 234 0.0 2.0 0.00 0.37 0.00 85 1013.0
20260507064005 41 228 0.0 2.0 0.00 0.38 0.00 85 1013.1
20260507063504 41 179 0.0 2.0 0.00 0.39 0.00 85 1013.1
20260507063009 41 171 0.0 2.0 0.00 0.40 0.00 85 1013.1
20260507062511 41 171 0.0 0.0 0.00 0.41 0.00 84 1013.2
20260507062007 41 171 0.0 0.0 0.00 0.42 0.00 84 1013.3
20260507061518 42 171 0.0 2.0 0.00 0.42 0.00 84 1013.4
20260507061006 42 171 0.0 2.0 0.00 0.44 0.00 84 1013.3
20260507060508 42 171 0.0 2.0 0.00 0.46 0.00 84 1013.4
20260507060015 42 171 0.0 1.0 0.00 0.47 0.00 84 1013.5
20260507055509 42 171 0.0 0.0 0.00 0.48 0.00 84 1013.6
20260507055014 42 171 0.0 0.0 0.00 0.49 0.00 84 1013.6
20260507054513 42 171 0.0 0.0 0.00 0.50 0.00 83 1013.7
20260507054009 42 171 0.0 0.0 0.00 0.51 0.00 83 1013.6
20260507053508 43 171 0.0 1.0 0.00 0.52 0.00 83 1013.6
20260507053042 43 171 0.0 1.0 0.00 0.52 0.00 83 1013.6
20260507052509 43 171 0.0 1.0 0.00 0.52 0.00 82 1013.7
20260507052008 43 171 0.0 1.0 0.00 0.54 0.00 82 1013.7
20260507051538 44 171 0.0 2.0 0.00 0.55 0.00 81 1013.8
20260507051007 44 171 0.0 2.0 0.00 0.56 0.00 80 1013.7
20260507050507 44 171 0.0 1.0 0.00 0.57 0.00 80 1013.8
20260507050021 44 171 0.0 1.0 0.00 0.57 0.00 80 1013.7
20260507045509 44 171 0.0 0.0 0.00 0.58 0.00 80 1013.8
20260507045007 44 171 0.0 0.0 0.00 0.58 0.00 79 1013.8
20260507044527 44 171 0.0 0.0 0.00 0.58 0.00 79 1013.7
20260507044008 44 171 0.0 0.0 0.00 0.58 0.00 79 1013.7
20260507043512 44 171 0.0 0.0 0.00 0.60 0.00 78 1013.7
20260507043018 44 171 0.0 1.0 0.00 0.61 0.00 78 1013.8
20260507042509 44 171 0.0 1.0 0.00 0.62 0.00 78 1013.8
20260507042012 44 171 0.0 1.0 0.00 0.63 0.00 78 1013.9
20260507041530 44 171 0.0 1.0 0.00 0.63 0.00 79 1014.0
20260507041007 44 171 0.0 1.0 0.00 0.64 0.00 78 1014.0
20260507040512 44 171 0.0 0.0 0.00 0.65 0.00 77 1014.1
20260507040030 44 171 0.0 0.0 0.00 0.67 0.00 76 1014.1
20260507035510 44 171 0.0 0.0 0.00 0.68 0.67 76 1014.1
20260507035005 45 171 0.0 0.0 0.00 0.68 0.67 75 1014.2
20260507034532 45 171 0.0 0.0 0.00 0.69 0.67 75 1014.2
20260507034001 45 171 0.0 0.0 0.00 0.70 0.67 74 1014.3
20260507033501 45 171 0.0 0.0 0.00 0.70 0.67 73 1014.3
20260507033010 45 171 0.0 1.0 0.00 0.71 0.67 73 1014.3
20260507032503 46 171 0.0 1.0 0.00 0.72 0.67 72 1014.3
20260507032002 46 171 0.0 0.0 0.00 0.72 0.67 72 1014.3
20260507031503 46 171 0.0 0.0 0.00 0.73 0.67 72 1014.2
20260507031003 46 171 0.0 0.0 0.00 0.73 0.67 73 1014.1
20260507030503 46 171 0.0 0.0 0.00 0.73 0.67 73 1014.1
20260507030003 46 171 0.0 0.0 0.00 0.74 0.67 73 1014.1
20260507025503 46 171 0.0 0.0 0.00 0.74 0.67 71 1014.1
20260507025002 47 171 0.0 0.0 0.00 0.75 0.67 72 1014.0
20260507024503 47 171 0.0 0.0 0.00 0.75 0.67 70 1014.1
20260507024006 47 171 0.0 0.0 0.00 0.78 0.67 71 1014.1
20260507023503 47 171 0.0 0.0 0.00 0.78 0.67 70 1014.0
20260507023006 47 171 0.0 0.0 0.00 0.79 0.67 69 1014.0
20260507022503 47 171 0.0 1.0 0.00 0.80 0.67 70 1014.1
20260507022003 47 171 0.0 2.0 0.00 0.82 0.67 69 1014.1
20260507021504 47 171 0.0 2.0 0.00 0.85 0.67 69 1014.1
20260507021002 47 171 0.0 4.0 0.00 0.89 0.67 68 1014.0
20260507020502 47 171 0.0 4.0 0.00 0.92 0.67 70 1014.0
20260507020006 47 171 0.0 4.0 0.00 0.93 0.67 70 1013.9
20260507015506 48 197 0.0 4.0 0.00 0.94 0.67 70 1013.8
20260507015005 48 165 2.0 4.0 0.00 0.94 0.67 69 1013.7
20260507014507 48 177 1.0 5.0 0.00 0.95 0.67 68 1013.7
20260507014003 48 167 1.0 5.0 0.00 0.95 0.67 69 1013.6
20260507013502 48 194 1.0 6.0 0.00 0.96 0.67 70 1013.5
20260507013003 48 213 1.0 6.0 0.00 0.96 0.67 69 1013.5
20260507012503 48 186 1.0 4.0 0.00 0.96 0.67 71 1013.4
20260507012003 48 196 1.0 5.0 0.00 0.97 0.67 69 1013.3
20260507011505 48 192 2.0 5.0 0.00 0.97 0.67 68 1013.2
20260507011002 48 190 1.0 6.0 0.00 0.97 0.67 69 1013.2
20260507010503 48 198 1.0 6.0 0.00 0.97 0.67 69 1013.1
20260507010013 48 196 1.0 7.0 0.00 0.97 0.67 69 1013.2
20260507005503 48 173 1.0 7.0 0.00 0.98 0.67 66 1013.2
20260507005003 49 186 3.0 7.0 0.00 0.98 0.67 66 1013.2
20260507004508 49 198 3.0 7.0 0.00 0.98 0.67 67 1013.2